Fort Stanton, NM

2:09 PM MST on February 25, 2017 (GMT -0700)
Sierra Blanca Regional

Weather History for KSRR - April, 2013

Change the Weather History Date:

Monday, April 29, 2013

  Actual Average Record
Temperature  
Mean Temperature 64 °F -  
Max Temperature 77 °F 66 °F 80 °F (2002)
Min Temperature 50 °F 43 °F 32 °F (2003)
Degree Days  
Heating Degree Days 2    
Growing Degree Days 14 (Base 50)    
Moisture  
Dew Point 7 °F    
Average Humidity 11    
Maximum Humidity 20    
Minimum Humidity 6    
Precipitation  
Precipitation 0.00 in - - ()
Sea Level Pressure  
Sea Level Pressure 30.03 in    
Wind  
Wind Speed 7 mph (WNW)    
Max Wind Speed 18 mph    
Max Gust Speed 32 mph    
Visibility 10 miles    
Events      
Averages and records for this station are not official NWS values.
T = Trace of Precipitation, MM = Missing Value Source: NWS Daily Summary

Daily Weather History Graph

Daily Weather History Graph

Search for Another Location

Airport or City:

Trip Planner

Search our weather history database for the weather conditions in past years. The results will help you decide how hot, cold, wet, or windy it might be!

Date:

Astronomy

Apr. 29, 2013 Rise Set
Actual Time 6:15 AM MDT 7:43 PM MDT
Civil Twilight 5:49 AM MDT 8:10 PM MDT
Nautical Twilight 5:17 AM MDT 8:41 PM MDT
Astronomical Twilight 4:44 AM MDT 9:14 PM MDT
Moon No Moon Rise 9:44 AM MDT (4/29)
Length of Visible Light 14h 20m
Length of Day
13h 28m
Waning Gibbous, 79% of the Moon is Illuminated
Apr 29
Waning Gibbous
May 2
Last Quarter
May 9
New
May 17
First Quarter
May 24
Full

Hourly Weather History & Observations

Time (MDT) Temp. Dew Point Humidity Pressure Visibility Wind Dir Wind Speed Gust Speed Precip Events Conditions
12:15 AM 50.0 °F 10.4 °F 20% 30.08 in 10.0 mi SSW 3.5 mph - N/A   Clear
12:35 AM 50.0 °F 10.4 °F 20% 30.07 in 10.0 mi Calm Calm - N/A   Clear
12:55 AM 53.6 °F 6.8 °F 15% 30.07 in 10.0 mi Calm Calm - N/A   Clear
1:15 AM 53.6 °F 8.6 °F 16% 30.07 in 10.0 mi Calm Calm - N/A   Clear
1:35 AM 50.0 °F 8.6 °F 19% 30.06 in 10.0 mi WNW 5.8 mph - N/A   Clear
1:55 AM 50.0 °F 8.6 °F 19% 30.06 in 10.0 mi NW 3.5 mph - N/A   Clear
2:15 AM 53.6 °F 10.4 °F 18% 30.06 in 10.0 mi Calm Calm - N/A   Clear
2:35 AM 55.4 °F 10.4 °F 17% 30.06 in 10.0 mi Calm Calm - N/A   Clear
2:55 AM 57.2 °F 10.4 °F 16% 30.06 in 10.0 mi Calm Calm - N/A   Clear
3:15 AM 57.2 °F 10.4 °F 16% 30.06 in 10.0 mi SW 5.8 mph - N/A   Clear
3:35 AM 55.4 °F 8.6 °F 15% 30.06 in 10.0 mi West 8.1 mph - N/A   Clear
3:55 AM 53.6 °F 8.6 °F 16% 30.05 in 10.0 mi West 8.1 mph - N/A   Clear
4:15 AM 53.6 °F 10.4 °F 18% 30.05 in 10.0 mi West 5.8 mph - N/A   Clear
4:35 AM 50.0 °F 8.6 °F 19% 30.05 in 10.0 mi WNW 3.5 mph - N/A   Clear
4:55 AM 53.6 °F 8.6 °F 16% 30.06 in 10.0 mi WNW 6.9 mph - N/A   Clear
5:15 AM 51.8 °F 8.6 °F 18% 30.06 in 10.0 mi NW 3.5 mph - N/A   Clear
5:35 AM 51.8 °F 6.8 °F 16% 30.06 in 10.0 mi Calm Calm - N/A   Clear
5:55 AM 55.4 °F 5.0 °F 13% 30.06 in 10.0 mi West 4.6 mph - N/A   Clear
6:15 AM 53.6 °F 5.0 °F 14% 30.06 in 10.0 mi WSW 5.8 mph - N/A   Clear
6:35 AM 51.8 °F 8.6 °F 18% 30.07 in 10.0 mi West 9.2 mph - N/A   Clear
6:55 AM 53.6 °F 8.6 °F 16% 30.07 in 10.0 mi WSW 10.4 mph - N/A   Clear
7:15 AM 55.4 °F 8.6 °F 15% 30.08 in 10.0 mi West 6.9 mph - N/A   Clear
7:35 AM 57.2 °F 10.4 °F 16% 30.08 in 10.0 mi SW 4.6 mph - N/A   Clear
7:55 AM 59.0 °F 12.2 °F 16% 30.08 in 10.0 mi SW 3.5 mph - N/A   Clear
8:15 AM 62.6 °F 14.0 °F 15% 30.08 in 10.0 mi West 5.8 mph - N/A   Clear
8:35 AM 62.6 °F 12.2 °F 14% 30.08 in 10.0 mi West 3.5 mph - N/A   Clear
8:55 AM 62.6 °F 12.2 °F 14% 30.08 in 10.0 mi Calm Calm - N/A   Clear
9:15 AM 64.4 °F 10.4 °F 12% 30.07 in 10.0 mi NE 6.9 mph - N/A   Clear
9:35 AM 66.2 °F 10.4 °F 11% 30.07 in 10.0 mi North 5.8 mph - N/A   Clear
9:55 AM 68.0 °F 10.4 °F 11% 30.08 in 10.0 mi NNW 8.1 mph - N/A   Clear
10:15 AM 69.8 °F 8.6 °F 9% 30.07 in 10.0 mi NNW 13.8 mph 18.4 mph N/A   Clear
10:35 AM 71.6 °F 6.8 °F 8% 30.07 in 10.0 mi NNW 10.4 mph 18.4 mph N/A   Clear
10:55 AM 71.6 °F 8.6 °F 9% 30.08 in 10.0 mi NNW 13.8 mph 21.9 mph N/A   Clear
11:15 AM 71.6 °F 8.6 °F 9% 30.07 in 10.0 mi NW 18.4 mph 24.2 mph N/A   Clear
11:35 AM 71.6 °F 8.6 °F 9% 30.07 in 10.0 mi NW 15.0 mph 18.4 mph N/A   Clear
11:55 AM 73.4 °F 8.6 °F 8% 30.06 in 10.0 mi West 10.4 mph 23.0 mph N/A   Clear
12:15 PM 73.4 °F 6.8 °F 8% 30.06 in 10.0 mi NNW 10.4 mph 21.9 mph N/A   Clear
12:35 PM 73.4 °F 8.6 °F 8% 30.05 in 10.0 mi North 15.0 mph 20.7 mph N/A   Clear
12:55 PM 75.2 °F 6.8 °F 7% 30.04 in 10.0 mi North 17.3 mph 27.6 mph N/A   Clear
1:15 PM 75.2 °F 6.8 °F 7% 30.04 in 10.0 mi West 10.4 mph 21.9 mph N/A   Clear
1:35 PM 75.2 °F 6.8 °F 7% 30.03 in 10.0 mi NNW 13.8 mph 32.2 mph N/A   Clear
1:55 PM 75.2 °F 6.8 °F 7% 30.02 in 10.0 mi NNW 11.5 mph 25.3 mph N/A   Clear
2:15 PM 75.2 °F 6.8 °F 7% 30.01 in 10.0 mi WNW 13.8 mph 25.3 mph N/A   Clear
2:35 PM 75.2 °F 6.8 °F 7% 30.01 in 10.0 mi NW 12.7 mph 21.9 mph N/A   Clear
2:55 PM 77.0 °F 6.8 °F 7% 30.00 in 10.0 mi NW 9.2 mph 19.6 mph N/A   Clear
3:15 PM 75.2 °F 6.8 °F 7% 29.99 in 10.0 mi West 12.7 mph 21.9 mph N/A   Clear
3:35 PM 77.0 °F 6.8 °F 7% 29.98 in 10.0 mi NW 17.3 mph 20.7 mph N/A   Clear
3:55 PM 77.0 °F 6.8 °F 7% 29.98 in 10.0 mi NNW 12.7 mph 17.3 mph N/A   Clear
4:15 PM 75.2 °F 6.8 °F 7% 29.97 in 10.0 mi NW 16.1 mph 24.2 mph N/A   Clear
4:35 PM 75.2 °F 5.0 °F 7% 29.97 in 10.0 mi NNW 16.1 mph 23.0 mph N/A   Clear
4:55 PM 75.2 °F 5.0 °F 7% 29.96 in 10.0 mi NW 12.7 mph 23.0 mph N/A   Clear
5:15 PM 75.2 °F 5.0 °F 7% 29.96 in 10.0 mi NNW 13.8 mph 19.6 mph N/A   Clear
5:35 PM 75.2 °F 3.2 °F 6% 29.96 in 10.0 mi NW 12.7 mph 18.4 mph N/A   Clear
5:55 PM 73.4 °F 5.0 °F 7% 29.96 in 10.0 mi NW 9.2 mph - N/A   Clear
6:15 PM 73.4 °F 5.0 °F 7% 29.96 in 10.0 mi NW 11.5 mph 19.6 mph N/A   Clear
6:35 PM 73.4 °F 5.0 °F 7% 29.96 in 10.0 mi WNW 10.4 mph - N/A   Clear
6:55 PM 71.6 °F 5.0 °F 7% 29.96 in 10.0 mi WNW 10.4 mph - N/A   Clear
7:15 PM 71.6 °F 5.0 °F 7% 29.96 in 10.0 mi NW 8.1 mph - N/A   Clear
7:35 PM 68.0 °F 5.0 °F 8% 29.96 in 10.0 mi West 8.1 mph - N/A   Clear
7:55 PM 66.2 °F 5.0 °F 9% 29.96 in 10.0 mi WSW 6.9 mph - N/A   Clear
8:15 PM 64.4 °F 3.2 °F 9% 29.96 in 10.0 mi WSW 9.2 mph - N/A   Clear
8:35 PM 62.6 °F 1.4 °F 9% 29.96 in 10.0 mi SW 10.4 mph - N/A   Clear
8:55 PM 62.6 °F 1.4 °F 9% 29.97 in 10.0 mi SW 10.4 mph - N/A   Clear
9:35 PM 60.8 °F 3.2 °F 10% 29.97 in 10.0 mi SW 12.7 mph - N/A   Clear
9:55 PM 60.8 °F 3.2 °F 10% 29.97 in 10.0 mi SW 10.4 mph - N/A   Clear
10:15 PM 59.0 °F 3.2 °F 11% 29.97 in 10.0 mi SW 12.7 mph - N/A   Clear
10:35 PM 57.2 °F 3.2 °F 11% 29.97 in 10.0 mi WSW 9.2 mph - N/A   Clear
10:55 PM 57.2 °F 3.2 °F 11% 29.97 in 10.0 mi West 9.2 mph - N/A   Clear
11:15 PM 59.0 °F 3.2 °F 11% 29.97 in 10.0 mi WSW 11.5 mph - N/A   Clear
11:35 PM 57.2 °F 3.2 °F 11% 29.97 in 10.0 mi West 6.9 mph - N/A   Clear
11:55 PM 59.0 °F 3.2 °F 11% 29.97 in 10.0 mi WSW 5.8 mph - N/A   Clear